sat.trackr.live / text

‹ back to catalog

RASSVET-3 9

NORAD 68368 · 2026-061J

PAYLOAD ACTIVE UNKNOWN

§ Identity

Operator
Country
CIS
Launch date
2026-03-23
Launch site
PLMSC
Launch vehicle
Mass (kg)
RCS (m²)

External: N2YO · Heavens-Above · Gunter

§ Orbital elements

Epoch: 2026-09-18T03:07:27.621120Z

Period
94.84 min
Inclination
82.2895°
Eccentricity
0.0003202
Mean motion
15.18402200 rev/d
Perigee alt
508.5 km
Apogee alt
512.9 km
Semi-major
6,888.8 km
B*
1.3389e-4
RAAN
277.4906°
Arg perigee
35.2067°
Mean anomaly
324.9377°
Rev number
2,766

§ Raw data

RASSVET-3 91 68368U 26061J   26261.13018080  .00002783  00000+0  13389-3 0  99902 68368  82.2895 277.4906 0003202  35.2067 324.9377 15.18402200 27661

JSON: /api/v1/satellites/68368 · /tle

For live sub-satellite position, see the globe view (requires WebGL).

§ Visibility from observer

Set your observer location to see the next 7 days of passes ≥ 10°. The values pass through the URL so the page stays shareable.

No JS? Fill the form by hand. The geolocation button needs JavaScript.